Wind_Speed
13 13 13 13 12 12 12 11 11 11 11 12 13 12 10 9 11 13 12 14 14 10 9 11 12 13 14 13 13 13 12 13 13 13 12 12 13 13 14 15 15 16 16 16 17 16 12 12 16 17 16 16 17 17 19 20 20 21 21 22 22 17 14 21 27 28 23 17 17 18 17 22 28 28 26 23 19 18 18 15 18 21 20 18 7 8 26
12 12 11 11 10 10 10 10 11 11 11 12 11 10 9 9 11 12 13 14 11 8 11 13 12 13 14 13 13 13 13 13 13 13 14 13 13 14 15 15 15 16 16 15 17 17 14 13 16 17 15 16 17 16 18 19 18 20 21 22 22 17 15 18 18 19 22 20 20 22 24 27 30 31 29 25 23 24 24 20 14 14 18 16 5 10 30
11 11 10 9 9 9 10 10 11 11 11 11 10 10 10 10 11 13 15 14 10 11 15 15 14 15 14 13 14 14 13 14 13 14 14 14 14 14 14 15 15 15 15 15 15 16 15 14 15 17 16 17 17 16 18 18 17 20 21 22 23 21 20 18 9 5 9 11 14 21 27 29 30 31 29 27 27 24 23 19 10 11 19 20 13 21 37
11 11 11 11 11 11 11 11 11 12 11 11 12 12 11 10 12 15 16 14 12 15 18 16 15 15 13 14 15 14 13 14 13 13 13 13 14 14 14 14 14 15 16 17 17 17 16 15 16 17 17 17 17 17 18 17 17 19 21 23 23 23 25 21 12 10 14 19 22 22 22 26 31 32 26 23 24 24 24 20 15 15 20 24 27 31 38
15 15 15 16 16 16 16 15 14 14 14 14 16 16 14 14 16 15 15 14 15 18 19 16 15 15 13 14 14 13 13 13 13 13 13 13 14 14 14 16 17 18 20 19 19 19 17 16 18 18 17 17 17 17 17 16 16 19 21 23 23 24 27 24 20 23 27 30 29 22 17 23 31 34 27 21 21 25 26 24 22 21 17 21 34 38 36
21 22 22 22 22 22 21 19 18 18 18 19 20 19 17 18 19 18 16 15 16 17 17 16 15 14 13 14 14 13 12 13 13 14 14 14 15 16 16 18 19 20 21 21 21 20 19 19 20 18 17 17 17 17 16 15 17 19 20 21 23 24 25 26 28 31 32 32 27 19 19 26 33 34 29 23 21 24 28 28 28 26 22 27 37 39 40
25 25 25 25 24 23 22 21 21 21 21 21 20 19 18 19 19 19 17 16 17 17 17 15 15 14 14 14 15 14 14 15 15 15 15 16 17 17 18 19 20 20 21 21 21 22 22 23 22 21 19 18 19 19 16 15 18 20 19 21 23 24 26 28 31 35 35 32 24 20 24 31 35 33 26 21 22 24 28 30 29 28 30 35 38 38 43
25 25 25 24 24 22 21 21 22 21 21 21 19 18 18 18 18 17 15 15 17 16 16 15 14 15 15 16 16 15 16 16 16 16 17 18 18 18 18 19 20 20 21 21 21 21 22 23 23 23 21 20 21 21 18 18 20 20 21 23 23 25 28 28 30 37 38 32 27 27 29 32 34 28 19 19 25 27 28 29 29 28 30 35 36 38 45
24 24 23 24 23 22 21 21 21 21 21 19 17 17 18 17 18 16 13 14 17 16 15 15 14 16 16 16 17 17 17 17 17 17 18 18 18 18 18 20 20 20 21 22 22 21 21 21 21 21 21 20 20 21 20 19 21 21 22 23 24 25 28 29 30 35 38 37 35 35 36 34 28 20 21 30 33 29 27 27 29 29 30 32 33 38 46
23 23 22 22 21 21 20 19 19 20 20 17 15 17 18 17 19 18 14 14 16 15 15 14 14 16 17 17 17 17 17 18 17 16 17 18 19 19 19 21 21 21 21 21 21 21 21 21 20 20 21 20 19 20 20 19 21 23 24 25 26 25 28 31 28 28 37 41 38 38 38 27 16 20 34 41 33 25 26 31 34 34 30 30 35 44 52
21 20 20 19 19 19 19 18 18 18 18 17 16 18 18 17 19 18 15 14 15 14 14 15 15 16 17 17 17 17 16 17 16 16 17 18 19 20 20 20 21 21 21 20 21 21 21 22 21 20 21 20 20 21 20 20 21 23 24 26 27 26 28 30 24 23 34 41 39 36 27 12 15 32 40 32 22 20 28 37 39 37 35 37 43 48 48
19 18 18 18 17 18 18 17 18 17 17 19 19 19 19 18 18 17 14 14 15 14 13 15 15 16 16 16 16 16 16 16 16 17 18 19 20 20 19 19 20 20 20 20 21 22 23 23 22 22 23 23 22 21 21 22 22 23 26 27 28 29 29 30 26 24 31 38 31 20 13 19 35 42 33 22 20 22 30 40 41 39 41 43 41 39 36
17 17 17 17 17 18 18 18 19 18 18 20 20 19 20 18 17 17 15 15 15 14 13 14 15 15 16 15 15 16 16 16 17 18 18 18 19 19 19 19 19 21 21 21 23 24 25 25 25 25 26 26 24 22 22 24 24 25 28 28 29 30 29 29 28 24 25 27 19 11 21 40 48 37 26 27 28 28 36 43 42 39 35 30 30 31 31
16 17 17 18 18 18 19 19 19 19 19 20 20 19 20 18 17 17 17 15 14 14 14 14 15 15 15 15 15 15 16 16 16 17 17 17 18 19 19 18 19 21 22 22 24 26 27 28 28 29 30 29 27 25 26 27 27 28 30 30 30 30 29 28 26 21 18 20 23 26 33 40 39 30 27 31 32 34 40 41 39 36 27 22 28 34 34
16 17 17 18 18 18 18 19 20 20 19 19 19 19 20 19 17 18 18 15 13 14 14 13 14 14 14 14 15 15 15 15 16 17 17 17 18 19 19 18 19 22 23 23 24 26 28 28 28 29 30 29 26 26 28 29 30 32 32 32 32 31 30 28 23 22 23 23 24 23 19 23 31 32 31 34 36 38 41 39 36 32 25 26 35 43 44
16 16 16 17 17 17 18 18 19 20 19 19 19 19 19 19 18 18 17 15 13 14 14 12 12 14 13 13 14 15 14 15 16 17 17 17 18 20 20 19 20 22 23 23 25 26 27 27 27 27 27 26 24 26 29 29 32 35 35 34 35 33 33 30 25 27 31 26 18 13 12 19 30 31 30 33 36 40 41 35 30 28 29 35 44 50 52
15 15 15 15 16 16 17 17 18 18 19 19 19 18 19 19 18 17 16 15 13 13 13 11 11 13 13 12 14 15 14 15 16 17 17 17 18 21 20 19 21 23 23 24 25 27 27 28 28 28 28 27 25 26 27 28 32 36 36 35 35 33 31 30 27 29 32 28 22 21 21 23 28 29 29 32 40 46 38 22 22 33 40 45 51 54 55
13 13 14 14 15 16 16 17 17 17 17 18 17 17 18 18 17 16 15 14 13 12 11 11 11 12 12 12 13 14 14 14 15 15 16 16 18 20 20 19 21 23 24 24 26 28 29 28 29 30 30 29 27 27 28 29 31 35 36 34 34 32 30 28 28 31 32 28 26 27 25 23 26 29 34 43 50 46 28 17 28 44 49 50 54 57 59
11 12 13 13 14 14 15 15 16 16 16 16 16 16 17 16 16 16 14 14 13 13 11 10 10 11 12 11 13 14 14 14 14 15 16 16 18 19 19 19 21 23 24 25 28 29 29 29 30 30 30 30 30 30 32 34 33 35 35 32 31 30 29 27 27 28 28 27 28 29 26 24 28 35 45 53 47 33 23 28 41 50 53 55 57 60 64
10 11 12 12 13 13 14 14 15 15 15 15 15 14 15 15 14 14 14 13 13 13 11 10 10 11 11 11 12 13 14 14 14 15 16 16 17 19 20 21 23 24 25 27 30 30 30 32 33 29 28 31 31 31 35 38 37 35 33 30 30 29 26 26 27 25 25 28 27 20 17 24 35 43 46 44 36 29 30 40 48 53 56 58 60 64 67
9 10 11 12 12 13 13 14 15 15 15 15 14 14 14 14 13 13 13 12 12 12 11 10 10 10 11 12 12 12 13 15 15 15 16 17 18 20 21 22 24 25 26 28 31 31 31 34 34 30 30 33 32 31 34 38 39 37 33 31 31 28 23 25 30 29 27 27 24 20 25 36 41 41 41 40 38 39 43 47 52 56 58 59 64 69 70
7 9 10 11 11 12 13 14 15 16 16 16 15 15 14 13 12 13 12 11 12 12 10 10 10 10 11 12 13 13 14 15 17 17 17 17 18 20 21 22 23 25 27 29 31 31 31 33 33 33 34 34 33 33 33 35 37 38 35 32 29 25 24 29 34 35 33 31 32 35 40 42 38 37 43 47 49 51 53 54 58 61 61 64 69 71 72
7 9 10 10 11 12 14 15 16 16 17 17 17 16 15 14 13 13 13 12 12 12 12 10 10 11 12 13 14 15 14 16 18 18 18 19 19 21 23 24 24 26 28 29 31 32 32 33 33 34 35 33 32 34 34 34 36 36 35 34 30 29 34 36 38 41 41 39 40 42 43 43 44 48 53 55 56 59 60 62 64 64 65 69 71 71 71
8 9 10 11 12 13 14 15 16 17 18 18 18 18 17 16 14 14 14 14 13 13 13 11 11 12 13 13 15 16 16 17 19 20 20 21 22 23 25 26 27 29 30 31 32 32 33 33 32 33 35 33 31 33 34 34 36 36 36 38 38 39 42 43 43 45 43 40 42 45 48 52 53 54 57 58 60 62 63 64 65 66 69 71 69 68 68
8 10 11 12 13 14 15 15 16 17 18 19 19 19 18 17 16 16 15 15 15 15 14 13 14 14 14 15 17 18 16 18 21 21 20 22 23 24 26 27 29 32 33 33 33 33 33 33 32 33 35 34 32 34 34 34 36 37 37 39 41 43 44 42 42 43 42 41 45 50 53 57 57 57 59 62 62 64 66 67 67 69 71 71 68 67 67
8 10 11 12 13 14 15 16 17 18 19 19 19 19 18 18 18 17 17 17 17 17 15 15 15 16 16 17 18 18 18 20 21 20 21 23 24 25 27 28 30 33 34 33 34 33 33 33 32 32 33 33 33 36 36 35 37 38 36 38 40 41 39 37 39 42 44 46 50 54 57 60 61 60 62 64 65 66 67 67 69 71 71 70 68 68 68
8 10 11 12 13 14 15 16 18 19 20 20 20 20 20 20 19 19 18 18 18 18 17 17 17 18 18 19 19 19 20 21 20 21 22 24 25 26 28 31 33 34 34 34 34 34 33 34 32 31 32 32 34 36 36 36 38 38 37 40 41 40 38 37 38 42 44 46 49 51 53 57 60 62 63 64 64 64 65 67 71 71 69 68 68 69 69
8 10 11 13 14 15 16 17 19 20 21 21 21 21 21 20 20 19 19 19 19 19 18 19 19 20 20 20 20 20 20 20 20 21 23 24 26 28 30 33 34 34 35 36 36 35 35 34 33 32 31 32 35 36 36 36 36 35 35 38 40 39 37 36 36 39 42 44 48 51 53 57 61 64 65 65 64 64 67 70 71 68 66 66 66 67 67
9 11 12 13 14 15 16 18 20 21 21 21 21 21 21 21 20 20 20 20 20 20 20 20 21 21 21 20 20 20 20 20 21 22 24 25 27 30 31 33 34 35 36 36 36 35 34 33 32 32 31 31 34 36 36 34 33 32 34 37 37 36 35 35 37 41 44 46 51 55 59 62 64 65 66 65 65 65 67 68 67 65 64 63 63 63 63
11 12 13 14 14 15 17 19 20 21 21 21 21 21 21 21 20 20 21 21 21 21 21 21 21 21 21 20 19 19 20 20 21 23 25 27 28 30 32 33 34 35 35 35 34 34 33 32 32 32 30 30 32 34 35 33 32 32 34 35 35 36 37 38 40 43 47 51 55 59 64 68 69 68 67 66 65 65 65 64 62 61 61 61 61 61 60
11 12 13 14 15 16 18 19 20 20 21 21 21 21 21 21 21 22 22 21 21 22 22 21 21 21 19 19 19 20 20 21 22 24 26 28 30 31 32 33 34 34 34 33 34 34 33 32 32 32 31 31 32 33 33 33 32 32 34 36 37 39 42 43 44 46 50 55 61 66 71 73 71 68 66 64 64 63 62 61 60 60 60 60 60 59 56
12 13 13 14 15 17 19 20 20 21 21 21 21 22 22 22 23 22 22 21 21 21 21 21 20 19 18 18 19 21 21 23 24 25 27 29 32 33 34 34 33 32 33 34 35 35 34 32 32 33 33 33 33 32 33 33 32 33 35 38 40 42 44 46 48 50 54 60 67 72 74 71 67 65 64 63 63 61 60 60 61 60 60 60 59 57 55
12 13 13 14 16 18 19 20 21 22 22 22 22 22 22 22 22 22 22 21 21 21 20 20 19 18 18 19 20 21 23 24 26 28 29 31 33 35 36 35 34 33 34 35 36 35 34 32 33 35 37 36 34 33 33 33 32 33 36 38 40 42 45 48 51 55 60 68 73 73 70 67 65 63 62 62 61 60 60 60 61 61 62 62 60 59 58
12 13 14 15 17 19 20 21 22 22 22 23 23 22 22 22 22 22 21 21 20 20 19 18 18 18 18 19 20 22 25 27 29 32 33 33 34 36 37 37 36 36 36 37 37 35 34 34 36 38 38 37 35 33 32 32 34 36 38 39 41 44 48 52 56 62 70 75 75 70 67 65 64 63 62 61 61 61 61 62 63 64 65 64 63 62 61
13 14 15 16 18 20 21 22 23 23 23 23 23 23 22 22 21 21 20 19 18 17 16 17 18 19 20 21 22 24 26 28 30 33 35 36 36 36 37 38 38 38 39 39 37 34 34 36 39 39 38 36 34 31 31 34 38 39 41 42 44 48 54 60 66 73 76 76 72 67 65 64 64 63 63 63 63 64 64 65 66 67 68 68 67 64 62
14 15 16 18 19 20 22 23 23 23 23 23 23 22 22 21 20 19 18 17 16 16 16 17 18 19 21 24 26 28 30 32 33 34 36 37 37 37 37 39 39 39 40 38 36 35 36 38 39 38 36 34 32 32 33 36 39 40 43 45 47 52 61 69 74 77 76 71 67 64 63 65 65 65 65 65 65 66 67 68 69 70 71 71 70 67 63
15 16 17 19 20 21 22 23 23 24 24 23 23 22 21 20 19 17 17 16 16 16 17 17 17 19 21 24 28 31 33 35 36 37 36 38 39 39 38 39 40 40 40 37 35 35 37 39 39 39 36 34 34 35 36 36 38 41 43 45 49 58 68 74 75 73 71 68 64 63 65 67 68 67 67 68 68 69 70 71 73 73 74 74 73 70 66
16 17 19 20 21 23 23 24 24 24 24 23 23 22 20 18 17 16 16 16 16 17 17 17 18 20 22 24 27 31 34 36 38 37 37 38 39 39 38 39 40 40 39 36 34 35 39 40 39 37 36 36 37 37 36 37 39 41 43 49 58 67 72 72 70 68 67 67 66 67 68 69 70 69 69 70 70 71 72 74 76 76 76 75 74 71 68
17 18 20 21 22 24 25 25 25 24 23 23 22 20 18 17 16 16 16 17 17 17 18 19 21 23 25 26 27 30 33 37 38 38 37 37 37 38 39 38 37 38 37 34 33 37 41 40 37 35 36 37 37 37 38 39 40 44 51 59 66 69 69 68 66 65 64 66 67 68 68 68 68 69 69 70 71 73 75 77 78 78 77 75 73 70 67
18 19 20 22 23 24 25 26 25 24 23 22 20 18 17 16 16 17 17 18 18 18 19 21 24 25 27 30 31 32 34 36 37 38 38 37 35 37 37 35 35 36 34 31 34 39 40 38 36 34 34 35 36 38 40 42 46 53 61 66 67 66 66 66 65 64 64 65 67 66 66 66 66 67 68 70 73 76 78 79 80 79 77 74 71 67 64
19 20 21 22 24 25 26 25 25 24 23 20 18 17 16 16 16 18 19 19 18 19 21 23 25 26 28 31 33 34 35 35 36 38 38 37 36 37 37 35 34 32 30 31 36 39 36 35 35 32 31 33 36 39 43 49 56 63 66 66 65 66 66 65 64 64 65 66 67 66 66 66 65 66 68 71 74 77 78 78 77 75 72 69 65 62 60
20 21 22 23 25 25 25 24 24 22 21 18 16 16 16 17 17 19 20 19 19 21 23 24 26 28 31 32 34 35 35 35 36 37 37 36 36 36 36 34 31 30 32 35 38 35 33 33 33 31 32 35 38 43 52 60 66 67 66 65 65 65 65 65 66 66 66 66 66 67 67 67 67 69 71 74 75 75 74 72 70 68 65 62 60 58 56
21 22 23 24 25 25 24 23 22 20 18 16 16 16 17 18 19 20 21 21 22 23 25 25 27 29 31 32 34 34 34 33 35 36 36 35 34 35 34 33 32 34 37 37 34 31 31 31 29 29 34 40 46 54 62 67 67 66 65 65 64 64 64 65 66 67 66 67 67 68 68 69 71 73 74 74 72 71 69 67 64 62 60 59 57 56 54
21 23 24 24 25 25 23 21 20 18 16 15 17 18 18 20 21 22 22 23 23 24 26 27 28 30 31 33 34 34 33 33 34 34 33 33 33 32 31 32 35 37 37 34 32 31 31 28 28 34 43 51 58 64 66 66 65 65 66 65 65 65 65 66 67 67 68 69 69 69 70 72 75 76 74 71 68 67 66 65 62 60 59 59 57 56 54
22 23 24 25 25 24 21 18 17 17 16 16 18 19 21 22 23 23 23 23 24 25 27 28 29 31 32 33 34 34 33 33 33 31 31 33 33 30 30 34 37 36 34 32 32 32 33 34 39 47 55 61 65 66 65 64 64 64 65 66 66 66 67 68 68 69 70 71 71 72 74 76 76 74 72 69 66 65 64 63 61 60 60 59 57 56 54
23 24 25 25 24 22 20 18 17 17 17 18 19 21 21 22 22 23 23 24 25 26 27 28 30 31 32 33 33 33 33 32 31 30 30 31 32 31 32 34 33 30 30 32 32 33 37 44 51 57 61 65 65 64 63 63 63 63 65 67 68 68 68 69 70 70 71 71 72 74 76 76 74 71 69 68 67 66 64 63 61 59 57 57 56 56 56
23 24 25 24 22 21 19 18 18 18 19 20 20 21 21 21 22 23 24 25 25 27 28 29 30 31 32 32 32 32 32 31 29 29 29 31 32 32 32 31 29 28 30 33 35 37 43 52 58 61 63 64 64 63 63 63 63 64 66 67 67 68 69 70 71 72 72 72 74 76 75 73 70 69 69 69 69 68 66 64 61 57 56 57 58 59 60
23 24 24 22 21 20 20 19 19 19 20 20 20 20 21 22 22 23 24 25 26 28 29 29 30 32 32 32 32 32 31 30 29 29 29 31 31 31 30 31 32 33 33 35 39 45 51 56 61 63 63 63 62 62 63 63 64 65 67 67 68 70 71 72 72 73 73 74 75 75 72 69 68 68 69 70 70 70 67 64 62 60 60 61 62 62 62
23 23 23 22 21 21 21 21 20 20 20 20 20 21 21 22 23 24 25 26 27 28 29 30 31 31 31 32 32 32 30 29 29 30 30 29 28 29 30 32 36 38 40 42 46 52 56 58 61 62 62 61 61 62 62 62 64 66 67 67 68 70 72 73 73 73 73 75 75 73 69 68 67 68 69 71 72 71 68 66 65 65 64 64 64 64 63
23 23 23 22 22 22 21 21 21 21 21 21 21 21 22 23 24 25 25 26 28 29 29 30 31 31 31 32 31 30 30 30 31 30 29 29 29 30 33 36 38 41 45 50 53 55 57 59 60 61 61 61 61 61 61 63 65 67 67 68 69 71 73 74 73 73 74 76 74 70 67 67 67 68 70 71 70 70 69 68 67 67 66 64 62 61 59
24 23 23 23 22 22 22 22 22 22 21 21 21 22 23 24 25 25 26 26 27 28 29 30 30 30 31 31 30 30 30 32 32 30 29 30 31 33 37 41 44 45 49 53 56 56 57 59 59 60 60 61 62 62 62 63 65 66 67 69 70 72 74 74 73 73 75 75 72 68 67 67 68 68 69 68 68 70 71 70 68 66 65 63 60 57 55
24 24 23 23 23 23 22 22 22 22 22 22 22 23 24 25 26 26 26 26 27 28 28 29 30 29 29 30 30 30 30 31 32 31 31 32 34 37 41 45 47 48 51 53 56 57 57 58 58 57 58 60 61 62 63 64 65 67 68 69 71 73 74 73 73 74 75 73 70 68 68 68 68 68 68 69 70 71 71 70 68 66 64 60 56 54 53
Wind_Direction
42 45 45 45 46 46 47 47 48 49 47 51 53 47 40 41 54 62 61 57 55 50 55 59 56 61 67 66 66 65 62 58 53 46 47 45 39 35 33 32 29 25 22 16 13 15 13 9 9 6 3 358 351 350 348 345 345 346 347 349 349 349 342 334 334 339 343 342 342 337 326 321 321 323 323 319 316 314 309 296 292 293 283 283 277 247 298
38 40 43 45 46 47 48 48 47 46 46 48 50 45 38 43 56 62 60 57 55 56 62 63 60 62 66 68 66 63 60 57 52 45 43 41 36 31 29 28 24 21 18 13 9 10 10 7 3 2 359 353 351 348 345 345 344 343 344 344 346 348 339 331 333 340 343 344 347 344 336 331 327 325 323 317 313 313 309 302 293 280 280 288 244 245 299
38 39 42 46 49 52 52 50 49 48 46 47 50 46 38 43 60 68 66 61 61 69 69 64 61 62 66 69 65 61 57 54 49 42 38 35 31 27 25 24 19 17 15 10 10 10 7 5 358 356 355 349 348 346 344 345 342 339 342 341 341 340 335 333 327 312 321 321 325 327 324 323 326 328 324 316 314 312 307 304 277 257 290 296 259 264 299
50 51 53 57 61 63 62 58 54 51 49 53 60 57 53 60 67 70 71 69 67 70 69 64 61 61 62 64 63 59 54 51 46 40 35 30 27 22 21 18 14 15 12 10 11 9 5 2 356 355 353 347 346 345 344 343 339 340 342 340 340 338 336 337 323 300 304 305 314 323 316 310 319 327 325 318 315 310 304 295 269 271 295 295 292 295 302
67 69 70 72 73 73 71 67 64 64 64 70 73 69 68 74 73 69 72 74 69 67 68 66 63 60 56 59 60 56 51 48 42 36 31 26 24 18 15 14 12 11 10 8 7 5 3 2 358 356 353 348 347 344 343 344 342 342 343 340 339 336 337 339 329 320 321 320 323 329 318 311 320 323 320 316 312 303 295 287 287 297 287 283 307 315 304
77 76 76 76 75 74 73 72 74 75 74 76 77 74 71 72 72 69 70 72 69 67 67 65 61 57 52 53 55 50 45 42 37 31 25 21 21 17 14 13 11 9 8 5 3 1 1 3 2 359 355 352 350 345 345 348 346 345 344 340 337 333 335 337 329 324 328 329 331 333 324 322 326 323 316 310 304 295 290 291 300 301 278 280 307 313 303
79 77 76 76 75 75 76 77 77 75 73 73 74 71 68 68 67 66 66 67 67 66 64 60 57 53 47 47 49 43 37 36 32 28 23 19 20 17 13 12 10 8 6 4 3 3 2 1 1 360 357 354 351 349 348 349 347 346 343 339 337 333 331 334 329 323 328 335 336 333 326 324 326 323 313 306 303 296 292 297 303 297 286 292 303 302 303
81 78 77 76 75 73 74 75 74 72 68 67 67 63 62 64 64 61 57 59 63 63 60 55 51 50 45 43 44 39 34 33 29 25 23 19 19 17 13 12 9 7 7 7 8 8 4 0 358 357 356 354 352 350 347 346 345 345 342 339 337 331 328 332 329 321 326 337 335 327 324 322 322 319 311 314 316 308 301 303 304 298 294 301 302 297 303
81 77 75 74 73 69 66 67 69 68 64 59 58 58 57 57 60 56 44 49 58 59 58 54 47 47 45 41 41 38 34 32 27 24 22 18 17 16 14 14 12 9 11 12 11 10 6 1 359 357 354 353 354 350 345 342 341 342 342 337 334 331 326 330 330 319 322 333 332 326 326 325 321 319 323 326 320 309 306 309 311 306 302 302 300 296 304
78 75 72 71 70 67 64 61 61 64 63 55 49 54 54 50 54 51 35 41 57 57 54 53 45 43 44 41 39 37 33 31 27 23 22 18 17 17 16 16 14 12 13 12 9 6 2 359 357 355 354 353 352 350 346 342 338 337 338 334 332 330 324 327 329 315 317 330 333 327 328 328 324 328 328 324 317 310 313 316 317 317 311 304 303 305 311
77 73 69 66 65 64 62 59 55 57 61 56 47 48 50 46 50 49 32 36 58 59 50 49 43 40 42 39 37 35 31 31 27 23 22 21 19 19 17 15 13 11 9 6 4 1 359 358 354 352 353 352 350 350 348 345 339 333 332 331 330 329 325 326 324 306 312 327 331 327 328 321 314 326 328 320 309 314 322 322 321 321 318 313 311 311 313
75 69 65 62 61 61 60 58 54 52 53 54 47 44 47 45 47 49 34 33 53 57 45 43 40 38 39 37 35 35 31 30 28 25 24 23 21 19 15 11 9 8 4 0 0 359 355 354 352 352 353 352 350 350 348 346 343 334 331 330 328 327 326 324 319 304 309 322 329 330 322 308 316 327 333 322 308 313 321 320 320 323 323 322 322 320 319
70 66 63 61 60 60 58 56 54 50 50 52 48 43 45 45 44 46 38 32 45 49 40 38 39 37 38 37 36 35 32 31 29 26 24 22 20 17 11 7 5 4 2 357 356 355 352 350 350 351 352 351 350 350 347 345 342 337 335 332 328 327 325 322 319 310 309 316 320 307 301 311 320 330 333 324 316 317 321 319 320 327 326 324 328 327 323
68 65 64 62 60 58 57 55 52 50 48 50 48 42 44 43 39 40 40 34 38 42 39 38 39 39 38 37 36 34 32 31 28 22 19 17 16 12 7 4 2 360 358 356 354 353 351 349 349 349 350 351 348 345 344 342 340 339 337 334 331 328 324 321 317 312 310 305 300 301 304 312 322 329 328 324 317 318 324 321 320 323 315 306 321 326 322
70 67 64 63 61 58 56 54 51 49 46 46 46 41 41 40 35 35 39 36 33 38 40 38 39 39 35 33 34 32 30 28 22 16 14 12 10 7 3 0 358 356 355 353 353 352 351 351 351 349 349 349 343 337 338 338 338 339 338 335 333 329 323 319 310 306 308 300 297 305 304 306 319 325 325 319 311 314 323 319 312 311 300 298 316 323 321
72 68 63 61 59 56 55 52 49 47 44 43 43 38 35 36 32 31 35 33 28 34 39 36 34 35 32 30 30 28 25 21 16 12 11 9 7 3 359 356 354 353 353 352 351 352 351 351 351 347 344 344 337 331 333 335 335 338 338 335 333 329 323 318 307 303 306 300 291 290 284 300 317 321 317 310 307 315 322 314 302 301 300 307 317 320 320
71 67 62 58 55 52 50 48 45 44 40 38 38 34 29 30 29 27 29 27 21 27 34 32 29 29 28 27 26 23 20 15 11 8 7 6 2 357 355 353 351 351 352 351 351 351 352 351 349 344 342 342 336 329 330 330 330 333 335 334 331 327 321 315 308 307 309 300 284 280 289 301 307 308 308 305 307 317 321 310 305 313 315 320 325 326 326
68 63 58 53 49 45 42 41 39 38 35 33 32 28 23 24 25 23 24 20 15 18 24 25 25 24 22 22 22 19 15 10 6 3 1 358 356 355 353 350 350 351 351 351 351 351 352 351 347 341 339 339 336 331 328 326 326 329 331 330 328 326 321 315 310 312 313 303 287 287 297 301 299 304 306 302 305 316 323 314 316 321 323 327 329 329 331
61 56 49 44 41 36 33 32 30 29 29 27 25 21 17 18 19 18 16 12 8 10 13 14 17 18 17 17 16 13 8 3 358 354 353 351 352 353 350 347 348 350 350 351 352 351 350 349 345 339 336 335 334 331 327 325 325 326 327 327 326 323 319 314 309 311 314 308 297 295 296 296 297 299 300 303 313 329 330 316 318 323 326 328 328 329 331
53 46 40 34 29 25 24 22 21 20 19 17 16 14 11 10 11 9 7 3 360 359 1 3 9 13 13 10 8 3 359 355 349 345 345 345 345 348 349 348 349 350 349 351 352 351 348 345 342 337 333 332 330 328 327 327 327 329 328 325 323 319 314 310 309 312 313 309 306 304 299 302 305 305 307 318 333 338 323 318 322 325 327 328 328 329 331
43 35 28 21 16 14 13 13 12 10 8 6 6 4 2 1 0 358 357 353 349 347 349 354 359 5 6 2 356 351 348 347 344 340 340 340 341 346 350 351 349 349 350 350 351 349 345 341 339 334 332 331 328 326 326 325 327 333 333 326 323 322 315 309 310 313 312 307 305 302 296 298 304 314 326 337 339 330 325 326 328 329 329 330 330 330 330
27 20 13 8 5 4 4 4 3 1 359 358 355 353 352 351 348 346 344 341 337 337 338 341 348 354 355 351 347 341 337 339 340 337 336 338 340 343 347 348 346 348 349 348 348 346 342 339 336 332 331 331 327 327 327 321 321 330 332 326 323 319 309 303 303 304 302 297 294 293 291 289 292 305 318 326 327 326 326 326 327 328 330 330 329 329 329
5 1 359 357 357 358 357 357 356 355 354 352 348 346 345 342 338 336 335 332 329 329 329 328 335 341 340 339 340 335 329 332 335 334 332 334 337 339 342 343 344 346 347 345 345 343 339 337 336 331 330 331 326 325 328 325 322 326 326 321 316 306 302 303 302 300 300 297 295 293 290 287 289 294 303 312 319 322 322 323 326 328 328 329 330 329 328
347 348 350 351 353 353 353 353 353 352 351 348 345 342 339 337 335 332 329 327 324 324 322 318 323 330 329 328 332 331 327 328 331 331 330 332 336 338 340 341 342 343 344 343 342 340 337 336 335 331 330 332 327 325 327 325 322 322 319 315 312 308 307 307 304 301 302 301 298 297 295 296 301 306 310 316 320 321 323 325 327 328 328 329 329 328 328
340 343 348 351 353 353 354 355 353 352 350 346 342 339 335 335 334 331 327 324 322 321 320 316 318 323 323 323 327 329 327 326 329 329 329 332 336 336 338 340 340 340 341 340 339 338 335 334 335 333 332 331 327 326 326 322 319 320 317 311 309 309 310 308 302 301 301 299 298 300 300 302 307 314 319 324 326 326 326 327 328 328 329 329 328 328 327
342 348 352 354 355 356 356 357 356 355 351 345 340 337 335 335 334 331 328 325 322 322 321 319 320 321 322 324 327 327 327 327 328 329 330 332 335 335 336 339 338 338 338 337 337 337 335 335 336 335 333 329 324 324 325 322 320 320 316 309 307 307 305 303 301 302 302 302 305 308 309 309 312 318 323 327 330 330 328 328 328 328 328 328 328 327 326
352 356 356 355 356 356 357 358 357 353 349 344 341 339 337 335 334 332 329 326 325 324 322 322 323 323 323 325 327 328 328 328 328 329 331 332 334 336 336 337 336 336 336 336 337 337 336 337 337 335 331 328 324 323 325 323 322 320 315 310 309 305 302 304 308 312 314 317 320 323 324 323 325 329 331 332 332 331 329 328 327 327 328 328 326 325 324
0 359 357 355 355 356 357 357 354 350 346 342 340 338 336 334 333 332 330 328 326 323 322 322 324 325 325 326 327 327 328 328 329 331 332 333 335 336 336 335 334 335 335 336 337 338 337 337 336 334 331 327 324 324 326 324 322 319 312 308 307 304 305 311 320 325 326 325 324 326 327 328 331 333 333 332 332 330 327 326 326 326 327 327 325 324 325
359 357 355 354 355 357 356 353 350 346 343 340 339 337 335 335 334 332 330 329 327 324 322 323 325 326 326 326 327 327 329 330 331 332 334 335 335 335 334 333 334 335 336 337 337 337 337 336 334 333 332 329 325 324 326 325 321 315 307 303 302 301 303 310 319 325 327 326 325 325 327 330 332 333 332 332 331 330 328 327 327 328 328 328 326 326 326
356 354 353 353 354 354 352 349 346 343 340 338 337 336 334 333 333 333 332 331 328 326 325 325 326 327 327 326 328 329 330 331 333 335 335 334 333 332 332 333 334 335 336 337 337 337 337 336 334 334 334 331 326 324 324 323 318 310 304 300 297 296 297 302 309 319 325 327 327 327 327 330 331 331 331 332 332 331 330 330 331 331 330 329 328 327 327
352 351 350 351 352 349 347 345 342 339 337 336 335 335 334 333 333 334 333 331 329 327 326 327 327 328 328 329 330 330 331 332 334 335 333 331 330 331 332 333 335 336 336 337 338 338 338 337 336 335 336 333 329 325 324 321 314 306 302 300 297 297 298 300 305 314 321 325 327 326 327 329 330 330 332 333 333 331 330 331 331 330 329 329 328 328 328
348 348 348 348 347 344 342 341 339 337 336 335 335 336 335 335 334 333 332 331 329 328 328 328 329 330 330 331 331 330 330 331 331 331 331 330 330 332 333 335 337 338 339 340 340 340 339 339 338 336 336 335 332 327 322 318 312 306 304 303 302 302 303 305 309 315 320 325 328 329 329 330 331 331 332 333 332 331 331 330 330 330 330 328 327 327 327
343 344 345 344 341 340 339 339 337 335 335 335 335 336 335 334 333 332 331 330 330 330 330 330 332 333 332 331 330 328 328 329 329 330 332 335 334 334 334 336 339 341 342 343 343 342 341 340 339 337 337 336 334 329 322 317 312 307 305 304 303 304 306 309 313 317 322 326 329 330 330 330 330 330 330 331 331 332 333 333 333 333 333 331 328 327 327
339 339 339 338 337 337 338 337 335 334 334 334 335 334 333 333 333 332 332 331 332 333 333 333 334 333 330 328 328 328 328 331 332 333 335 338 338 336 335 337 341 343 344 345 344 343 343 341 339 339 338 337 333 327 320 316 312 308 305 305 306 308 312 315 318 322 324 327 329 329 328 328 327 328 330 331 332 333 335 336 336 336 335 333 331 330 328
334 334 335 335 335 336 336 334 333 333 333 333 333 333 333 334 334 333 333 334 335 337 336 335 333 331 328 327 329 330 331 333 335 337 338 338 338 338 337 339 342 344 345 346 346 344 343 341 340 338 337 334 330 323 316 314 314 311 310 311 314 319 324 326 326 326 326 327 328 327 327 326 327 330 332 332 333 334 335 335 336 336 334 333 332 331 328
330 330 331 332 333 335 334 332 332 332 332 331 332 332 333 335 335 334 335 337 338 339 337 335 333 332 332 332 332 332 334 335 337 340 340 339 338 339 340 341 343 345 346 346 345 343 342 341 339 337 335 332 326 320 316 315 314 314 314 316 320 325 328 329 327 326 326 326 327 327 327 328 329 331 333 332 333 333 334 334 335 334 333 331 331 330 327
326 328 329 331 332 333 332 331 330 330 330 331 332 333 335 336 336 336 336 337 338 338 336 335 334 335 336 337 334 333 335 337 338 341 342 340 338 340 342 342 343 344 345 345 344 342 341 339 337 336 335 331 324 319 316 315 314 314 315 318 322 325 326 325 325 326 326 327 328 329 330 330 331 332 333 332 332 333 333 333 333 332 331 330 329 327 325
324 326 328 330 331 331 330 329 329 330 330 331 332 334 336 337 336 335 334 334 335 336 335 334 335 335 336 339 337 335 336 337 339 341 343 341 338 340 343 344 342 342 342 343 342 341 339 337 337 336 333 327 321 318 317 316 315 316 318 320 323 324 324 324 326 328 330 331 332 333 333 332 332 332 332 331 331 332 332 332 331 330 329 328 326 325 323
323 325 327 328 329 329 328 328 329 330 331 332 333 335 337 335 334 333 332 332 334 335 334 335 336 336 336 337 339 338 338 338 338 340 342 341 339 340 342 343 340 339 339 340 340 339 337 336 336 335 329 323 319 317 317 318 318 319 321 323 323 324 325 327 329 332 333 333 333 332 332 332 332 332 332 332 331 331 331 330 329 328 327 325 324 323 322
321 323 326 327 327 327 327 328 329 330 331 332 334 336 335 333 332 332 332 333 334 336 336 337 337 337 336 336 338 340 341 340 339 339 340 341 340 339 340 341 339 337 338 338 337 336 334 333 334 333 326 319 316 316 318 318 319 321 323 325 326 327 329 330 332 334 333 332 331 330 330 330 331 331 332 332 331 330 329 328 328 327 325 324 323 322 322
319 322 324 325 325 325 326 328 329 330 331 333 335 335 334 333 332 332 333 334 336 335 336 336 336 336 336 336 337 340 341 341 339 338 339 340 340 338 339 341 339 336 335 334 334 333 332 332 333 330 320 313 314 317 318 319 321 324 327 329 330 331 332 333 334 334 334 333 331 331 331 331 331 332 333 332 330 329 328 328 328 327 325 323 322 321 321
319 322 323 324 324 325 327 329 329 330 333 334 335 336 334 332 332 332 332 334 334 333 333 335 336 336 337 337 338 339 340 340 339 338 338 340 339 337 338 340 339 334 331 331 332 332 332 332 331 324 316 313 315 317 319 322 326 329 331 332 332 333 334 334 334 334 334 333 332 332 332 332 332 333 332 332 331 330 330 330 330 329 327 325 324 322 321
320 322 323 323 324 325 327 328 329 332 335 334 333 334 332 329 329 330 330 330 330 330 330 332 335 335 335 335 336 337 338 339 339 339 338 338 338 336 336 338 337 332 329 330 331 332 333 333 329 320 315 315 316 319 323 327 330 332 332 333 333 334 335 335 334 334 334 334 334 333 333 333 333 333 333 333 333 332 332 333 333 333 332 331 329 327 326
321 322 322 323 324 325 327 329 330 333 334 331 329 328 326 324 326 327 326 326 327 328 329 330 333 334 334 334 335 336 338 339 339 339 338 336 336 335 334 334 333 330 329 330 331 332 333 331 323 316 315 317 321 325 329 332 333 332 332 333 334 335 335 335 335 335 335 335 335 335 334 334 334 334 334 335 335 335 335 335 336 336 335 334 332 331 331
321 322 322 323 324 326 328 329 330 331 330 328 326 324 322 321 323 323 323 323 325 325 327 330 332 332 333 334 334 336 337 338 339 339 336 335 335 334 332 331 331 330 330 330 330 330 328 324 319 318 319 322 326 330 333 333 332 332 333 334 335 336 336 336 336 336 337 336 336 335 335 335 336 336 336 337 338 339 339 338 338 337 335 334 334 334 335
321 321 322 323 324 326 327 328 327 326 324 323 322 320 318 319 320 320 320 321 322 323 326 330 331 331 332 333 334 335 335 336 337 338 336 335 334 333 332 331 330 329 327 327 327 325 323 321 320 321 323 326 329 333 334 333 333 333 333 334 335 336 336 336 337 337 337 337 336 336 336 337 337 338 338 339 340 341 341 340 339 338 336 335 336 337 338
321 321 323 323 323 323 323 322 320 319 318 317 317 316 316 317 318 317 317 319 321 323 326 328 328 329 331 332 333 333 334 335 336 338 337 336 334 333 332 331 330 327 325 324 324 322 320 321 322 324 326 328 331 333 334 334 334 334 334 335 336 336 336 337 338 338 337 337 336 337 338 339 339 339 340 341 342 342 342 341 340 339 339 338 338 338 338
320 321 322 321 320 319 318 317 315 314 315 315 315 315 315 315 315 315 316 318 321 323 326 327 327 328 331 333 333 333 334 335 336 338 338 336 334 332 331 329 327 327 325 323 320 319 320 322 324 326 328 330 333 334 334 334 333 333 334 335 336 337 337 338 338 338 337 337 337 338 340 341 341 341 341 342 341 341 341 341 341 342 342 341 340 338 336
320 320 320 318 317 315 313 313 313 314 315 315 315 314 314 314 314 315 317 320 322 324 325 326 327 330 332 333 333 333 334 334 334 336 337 336 333 330 327 325 324 325 325 322 320 320 322 324 325 327 329 332 335 335 334 333 332 333 334 336 337 337 338 338 339 338 337 338 339 340 342 342 342 342 343 342 340 340 341 342 343 343 343 342 339 336 334
319 319 317 315 314 312 311 311 312 314 315 315 315 314 313 313 314 317 319 321 322 324 324 325 327 330 332 333 333 333 333 332 332 333 335 334 332 329 325 323 322 323 323 322 322 322 323 324 325 328 331 334 336 336 334 332 332 334 336 337 337 338 338 338 338 338 338 339 341 342 343 343 343 343 342 340 339 339 341 343 344 343 341 340 338 335 333
318 316 314 313 311 310 311 311 312 314 315 315 314 313 312 313 315 318 320 321 321 322 323 324 327 330 332 332 332 332 330 329 329 331 332 332 330 327 325 324 324 323 322 322 323 324 324 325 327 330 333 336 337 336 333 331 332 335 336 337 338 338 338 338 338 338 339 340 342 343 343 344 345 343 340 339 339 340 342 343 342 340 339 338 337 336 335
316 314 312 311 310 310 310 311 312 314 315 315 313 312 313 315 316 318 319 320 320 320 321 324 327 330 330 330 330 329 327 326 326 328 329 329 328 327 326 325 324 322 321 322 324 324 324 326 329 332 334 337 337 335 331 331 333 336 338 338 338 338 338 338 339 339 340 341 343 344 344 344 344 342 340 340 342 343 342 340 338 338 338 339 339 338 337
Height
3179 3179 3179 3178 3178 3178 3177 3177 3177 3176 3176 3176 3175 3175 3176 3175 3174 3174 3174 3173 3173 3174 3174 3174 3174 3173 3173 3173 3174 3174 3174 3174 3173 3173 3172 3172 3171 3170 3169 3168 3168 3166 3165 3164 3163 3162 3161 3160 3159 3158 3157 3155 3154 3152 3151 3149 3146 3145 3143 3141 3140 3138 3135 3132 3128 3125 3123 3121 3120 3118 3116 3114 3112 3110 3109 3107 3107 3105 3104 3103 3099 3095 3090 3088 3091 3083 3063
3180 3180 3179 3179 3179 3178 3178 3178 3178 3177 3177 3176 3176 3177 3177 3176 3175 3175 3175 3175 3175 3175 3175 3175 3175 3175 3175 3175 3175 3175 3175 3175 3174 3174 3173 3172 3172 3171 3170 3169 3168 3167 3166 3165 3164 3162 3161 3160 3159 3158 3157 3156 3154 3152 3150 3149 3146 3144 3142 3141 3139 3137 3135 3133 3130 3126 3122 3119 3118 3116 3114 3113 3110 3108 3107 3106 3105 3104 3101 3099 3098 3094 3086 3085 3088 3078 3061
3181 3180 3180 3180 3179 3179 3179 3179 3178 3178 3178 3178 3178 3178 3177 3177 3177 3177 3176 3176 3177 3177 3177 3177 3177 3176 3176 3176 3176 3176 3176 3175 3175 3175 3174 3173 3172 3172 3171 3170 3169 3168 3167 3166 3165 3163 3162 3161 3160 3158 3157 3155 3154 3152 3150 3148 3146 3144 3142 3140 3139 3137 3135 3133 3132 3130 3127 3123 3121 3119 3116 3113 3109 3106 3106 3104 3102 3101 3098 3096 3096 3091 3084 3082 3081 3071 3060
3181 3181 3180 3180 3180 3180 3180 3180 3180 3179 3179 3179 3179 3179 3179 3179 3179 3179 3178 3179 3180 3179 3178 3178 3178 3178 3178 3178 3177 3177 3177 3176 3176 3176 3175 3174 3173 3172 3172 3171 3170 3169 3167 3166 3165 3164 3162 3161 3160 3158 3157 3155 3153 3151 3149 3147 3146 3144 3142 3140 3138 3135 3133 3132 3131 3130 3128 3125 3122 3120 3118 3114 3108 3104 3102 3101 3099 3097 3095 3094 3091 3087 3083 3078 3073 3066 3059
3183 3182 3182 3181 3181 3181 3181 3181 3181 3181 3181 3181 3181 3181 3181 3181 3180 3181 3181 3181 3181 3180 3180 3180 3180 3180 3180 3179 3178 3178 3178 3178 3177 3177 3176 3175 3174 3173 3172 3171 3170 3168 3167 3166 3164 3164 3163 3161 3160 3158 3156 3154 3152 3150 3149 3147 3145 3143 3141 3139 3137 3135 3132 3130 3128 3126 3124 3122 3119 3117 3116 3112 3106 3101 3098 3096 3096 3093 3091 3088 3085 3083 3081 3073 3066 3063 3059
3185 3184 3184 3184 3183 3183 3184 3184 3184 3184 3184 3184 3183 3183 3184 3183 3182 3183 3183 3182 3183 3182 3182 3182 3182 3181 3181 3180 3180 3180 3179 3179 3178 3177 3177 3176 3175 3174 3173 3171 3170 3168 3167 3166 3164 3163 3162 3161 3159 3158 3156 3154 3152 3150 3148 3147 3145 3143 3141 3139 3137 3134 3131 3128 3125 3122 3120 3119 3116 3113 3112 3108 3104 3099 3095 3093 3092 3090 3086 3082 3080 3080 3077 3068 3061 3061 3056
3188 3188 3187 3187 3187 3187 3187 3187 3187 3187 3187 3186 3185 3186 3186 3185 3184 3185 3185 3184 3184 3184 3184 3184 3183 3183 3183 3182 3181 3181 3180 3180 3179 3178 3178 3177 3175 3174 3173 3172 3170 3169 3168 3167 3165 3163 3161 3159 3158 3156 3155 3153 3151 3149 3148 3146 3145 3143 3141 3139 3136 3133 3130 3127 3123 3118 3116 3116 3113 3110 3108 3105 3100 3096 3092 3091 3089 3086 3082 3078 3076 3076 3071 3064 3060 3057 3051
3191 3191 3191 3190 3191 3191 3191 3190 3189 3189 3189 3188 3188 3188 3188 3187 3186 3186 3187 3186 3186 3185 3185 3185 3185 3184 3184 3183 3182 3182 3181 3180 3180 3179 3178 3177 3176 3175 3174 3172 3171 3170 3169 3167 3166 3164 3162 3159 3157 3155 3154 3152 3150 3148 3147 3145 3144 3142 3140 3137 3135 3132 3128 3126 3122 3116 3112 3112 3111 3108 3106 3103 3098 3093 3091 3090 3087 3082 3079 3076 3073 3071 3067 3061 3058 3053 3046
3194 3194 3194 3193 3193 3194 3193 3193 3192 3191 3190 3191 3191 3190 3189 3189 3188 3188 3188 3187 3187 3187 3186 3186 3186 3185 3184 3184 3183 3183 3182 3181 3180 3179 3178 3177 3176 3175 3174 3173 3172 3171 3169 3168 3166 3164 3162 3160 3158 3156 3154 3152 3150 3148 3146 3145 3143 3141 3139 3136 3134 3131 3127 3125 3122 3115 3108 3109 3108 3105 3102 3100 3095 3091 3089 3087 3083 3079 3076 3074 3071 3067 3063 3058 3055 3050 3043
3196 3196 3196 3196 3196 3195 3195 3195 3194 3193 3193 3193 3193 3192 3191 3191 3189 3189 3189 3189 3188 3188 3188 3187 3187 3186 3185 3185 3184 3183 3183 3182 3181 3180 3179 3178 3177 3176 3175 3174 3173 3171 3169 3168 3166 3164 3162 3160 3158 3156 3154 3152 3150 3148 3146 3144 3142 3139 3138 3135 3132 3130 3126 3123 3122 3115 3106 3106 3106 3101 3097 3095 3091 3089 3087 3083 3080 3077 3074 3071 3069 3065 3061 3057 3052 3047 3042
3198 3198 3198 3198 3198 3197 3197 3197 3196 3195 3195 3195 3195 3193 3192 3192 3191 3190 3191 3190 3189 3190 3189 3188 3188 3187 3186 3186 3185 3184 3183 3182 3181 3180 3179 3179 3178 3177 3176 3174 3173 3171 3169 3167 3165 3163 3161 3159 3157 3156 3154 3151 3150 3148 3146 3144 3142 3139 3136 3133 3130 3128 3125 3122 3121 3115 3106 3104 3103 3098 3094 3092 3089 3088 3086 3081 3077 3075 3071 3068 3065 3062 3060 3057 3051 3045 3040
3200 3200 3200 3200 3199 3199 3199 3198 3198 3198 3197 3196 3196 3195 3194 3193 3192 3192 3192 3191 3190 3190 3190 3189 3188 3188 3187 3186 3185 3184 3184 3182 3182 3181 3180 3179 3178 3177 3176 3174 3172 3170 3168 3166 3165 3163 3161 3159 3157 3155 3153 3151 3149 3147 3145 3143 3141 3138 3135 3132 3129 3127 3124 3121 3119 3114 3107 3103 3102 3098 3093 3088 3085 3084 3082 3079 3076 3074 3069 3064 3062 3061 3058 3053 3048 3043 3039
3202 3202 3202 3202 3201 3201 3201 3200 3200 3200 3199 3197 3197 3197 3196 3195 3194 3194 3193 3192 3191 3191 3191 3190 3189 3188 3187 3186 3186 3185 3184 3183 3182 3181 3180 3179 3178 3176 3175 3173 3171 3169 3168 3166 3164 3162 3159 3157 3155 3153 3151 3149 3147 3145 3143 3141 3139 3137 3134 3132 3128 3126 3123 3119 3116 3113 3108 3103 3103 3099 3090 3083 3082 3081 3079 3076 3074 3070 3065 3060 3058 3058 3054 3047 3042 3038 3034
3204 3204 3203 3203 3203 3203 3202 3202 3201 3201 3200 3199 3199 3198 3197 3196 3196 3195 3194 3193 3192 3192 3191 3190 3189 3188 3187 3187 3186 3185 3184 3183 3182 3181 3180 3178 3177 3176 3174 3172 3171 3169 3168 3165 3163 3161 3158 3155 3153 3150 3148 3146 3144 3142 3141 3139 3137 3135 3133 3130 3128 3125 3122 3119 3115 3112 3108 3104 3100 3096 3087 3080 3079 3079 3077 3074 3070 3067 3063 3057 3054 3053 3048 3042 3037 3032 3029
3205 3205 3205 3205 3205 3204 3204 3203 3203 3202 3201 3201 3200 3200 3199 3198 3197 3196 3195 3194 3193 3192 3191 3190 3189 3188 3187 3187 3186 3185 3184 3183 3182 3181 3179 3178 3177 3175 3174 3172 3171 3169 3167 3165 3163 3160 3157 3155 3152 3149 3147 3145 3143 3141 3139 3137 3135 3133 3131 3128 3126 3123 3120 3118 3115 3111 3108 3104 3098 3093 3087 3079 3077 3078 3076 3072 3067 3064 3060 3055 3051 3048 3042 3037 3033 3028 3024
3207 3207 3206 3206 3206 3206 3205 3205 3204 3203 3203 3202 3201 3201 3200 3199 3198 3196 3195 3194 3193 3192 3191 3190 3189 3188 3188 3187 3186 3185 3184 3183 3182 3181 3179 3178 3177 3175 3174 3172 3171 3169 3167 3165 3162 3160 3158 3155 3153 3151 3148 3146 3144 3141 3138 3135 3133 3131 3129 3126 3124 3121 3118 3116 3113 3109 3105 3103 3099 3093 3087 3080 3077 3076 3072 3067 3062 3059 3056 3051 3046 3042 3038 3033 3030 3026 3021
3208 3208 3208 3208 3207 3207 3206 3206 3205 3204 3204 3203 3202 3201 3200 3199 3198 3197 3196 3195 3193 3192 3191 3191 3190 3188 3188 3187 3186 3185 3184 3183 3182 3180 3179 3178 3177 3175 3173 3172 3170 3168 3166 3164 3162 3160 3158 3155 3153 3150 3148 3146 3144 3141 3137 3135 3132 3129 3127 3125 3122 3119 3116 3113 3111 3106 3103 3101 3097 3091 3085 3080 3076 3072 3066 3061 3059 3056 3053 3047 3041 3037 3036 3033 3029 3025 3020
3209 3209 3209 3209 3208 3208 3207 3206 3206 3205 3204 3203 3203 3202 3201 3200 3199 3198 3196 3195 3194 3193 3191 3191 3190 3189 3188 3187 3186 3185 3184 3183 3182 3180 3179 3178 3176 3174 3173 3171 3169 3167 3165 3163 3161 3159 3157 3155 3152 3149 3146 3145 3143 3140 3136 3134 3131 3128 3126 3124 3120 3118 3115 3111 3108 3105 3102 3099 3093 3088 3084 3079 3073 3068 3062 3056 3054 3054 3052 3048 3041 3036 3034 3032 3027 3022 3016
3210 3210 3210 3209 3209 3208 3208 3207 3206 3205 3205 3204 3203 3202 3201 3200 3199 3198 3196 3195 3194 3193 3191 3191 3190 3189 3188 3187 3186 3185 3184 3182 3181 3179 3178 3176 3175 3173 3172 3171 3169 3167 3164 3163 3161 3158 3156 3154 3151 3148 3145 3143 3141 3139 3135 3132 3130 3127 3124 3122 3119 3116 3113 3109 3106 3103 3100 3097 3091 3085 3081 3077 3071 3066 3060 3054 3053 3054 3053 3049 3043 3037 3032 3028 3023 3018 3012
3211 3211 3211 3210 3209 3209 3208 3208 3207 3206 3205 3204 3203 3202 3201 3200 3199 3198 3196 3195 3194 3193 3192 3191 3190 3189 3188 3187 3186 3185 3183 3182 3180 3179 3177 3176 3174 3173 3171 3169 3167 3166 3164 3162 3160 3157 3155 3152 3150 3148 3145 3142 3140 3138 3134 3130 3128 3127 3124 3120 3118 3115 3112 3108 3105 3103 3099 3095 3090 3083 3077 3072 3067 3062 3057 3056 3058 3058 3053 3046 3041 3035 3030 3024 3018 3013 3009
3212 3212 3211 3211 3210 3210 3209 3208 3207 3206 3205 3204 3203 3202 3201 3200 3199 3197 3196 3195 3194 3193 3192 3191 3190 3189 3188 3187 3186 3184 3183 3181 3180 3178 3177 3175 3174 3172 3170 3169 3167 3165 3163 3161 3159 3157 3155 3152 3149 3147 3145 3142 3139 3137 3133 3128 3125 3124 3123 3119 3116 3114 3111 3106 3103 3101 3098 3093 3089 3084 3077 3070 3066 3061 3058 3058 3058 3055 3049 3042 3036 3030 3025 3019 3013 3008 3004
3213 3212 3212 3211 3211 3210 3210 3209 3208 3207 3206 3204 3203 3202 3201 3200 3199 3197 3196 3195 3194 3192 3192 3191 3190 3189 3187 3186 3185 3184 3182 3181 3179 3178 3176 3175 3173 3172 3171 3169 3168 3166 3164 3162 3160 3158 3155 3152 3149 3145 3143 3141 3137 3135 3133 3128 3122 3121 3120 3118 3115 3113 3110 3106 3101 3099 3097 3092 3087 3082 3076 3070 3066 3062 3058 3055 3052 3049 3044 3038 3031 3026 3021 3016 3009 3003 2998
3213 3213 3212 3212 3212 3211 3210 3209 3208 3207 3206 3204 3203 3202 3201 3199 3198 3197 3196 3195 3193 3192 3191 3190 3189 3188 3187 3186 3185 3183 3182 3180 3179 3177 3176 3174 3173 3172 3170 3169 3167 3165 3164 3162 3159 3157 3154 3152 3148 3144 3141 3139 3135 3132 3130 3127 3122 3119 3117 3116 3114 3110 3107 3104 3099 3095 3092 3089 3084 3078 3072 3068 3064 3061 3057 3052 3048 3044 3039 3033 3028 3022 3017 3012 3006 2999 2992
3213 3213 3213 3212 3212 3211 3210 3209 3208 3207 3206 3204 3203 3202 3200 3199 3198 3197 3195 3194 3192 3191 3190 3189 3189 3187 3186 3185 3184 3182 3181 3180 3178 3177 3175 3174 3172 3171 3169 3168 3166 3164 3162 3160 3158 3156 3153 3150 3148 3143 3139 3137 3134 3130 3128 3124 3121 3118 3115 3112 3110 3107 3103 3100 3095 3090 3085 3081 3078 3073 3068 3063 3059 3055 3052 3048 3044 3040 3036 3030 3024 3018 3013 3007 3001 2994 2987
3213 3213 3213 3212 3212 3211 3210 3209 3208 3207 3206 3204 3203 3201 3200 3199 3197 3196 3195 3193 3192 3191 3190 3189 3188 3187 3185 3184 3183 3181 3180 3179 3178 3176 3175 3173 3172 3170 3168 3167 3165 3162 3161 3159 3157 3155 3151 3148 3146 3142 3138 3135 3132 3128 3126 3123 3118 3116 3113 3107 3103 3101 3098 3094 3090 3086 3082 3077 3072 3067 3063 3060 3057 3052 3047 3042 3038 3034 3030 3025 3019 3013 3007 3001 2996 2990 2983
3213 3213 3213 3212 3212 3211 3210 3209 3208 3207 3206 3204 3202 3201 3199 3198 3197 3195 3194 3192 3191 3189 3189 3188 3187 3186 3184 3183 3182 3180 3179 3178 3177 3175 3174 3172 3171 3169 3167 3166 3164 3161 3159 3157 3155 3153 3149 3147 3144 3141 3137 3133 3130 3127 3125 3121 3117 3114 3110 3105 3099 3095 3093 3089 3085 3080 3076 3072 3067 3061 3055 3052 3051 3048 3043 3038 3033 3027 3022 3017 3012 3006 3000 2994 2988 2983 2978
3214 3213 3213 3212 3211 3210 3209 3208 3207 3206 3205 3203 3202 3200 3198 3197 3196 3194 3193 3191 3190 3188 3187 3187 3186 3185 3183 3182 3181 3179 3178 3177 3175 3174 3173 3171 3170 3168 3166 3164 3162 3159 3157 3155 3153 3150 3147 3144 3142 3139 3135 3132 3128 3124 3122 3119 3115 3111 3107 3102 3097 3093 3089 3086 3081 3075 3071 3067 3062 3057 3050 3044 3043 3042 3038 3034 3029 3023 3016 3010 3005 3000 2994 2987 2981 2975 2971
3213 3213 3212 3212 3211 3210 3209 3208 3207 3205 3204 3202 3201 3199 3198 3196 3195 3193 3191 3190 3189 3187 3186 3186 3185 3184 3182 3181 3179 3178 3177 3176 3174 3173 3172 3170 3168 3166 3164 3162 3159 3157 3155 3152 3149 3147 3144 3141 3139 3136 3133 3129 3125 3121 3119 3116 3112 3108 3104 3099 3095 3091 3086 3083 3079 3074 3070 3066 3062 3058 3052 3045 3041 3038 3033 3029 3024 3018 3012 3005 2999 2994 2989 2983 2976 2969 2964
3213 3213 3212 3211 3210 3209 3208 3207 3206 3205 3203 3201 3200 3198 3197 3195 3193 3192 3190 3189 3188 3186 3185 3184 3184 3182 3181 3180 3179 3177 3176 3175 3174 3172 3170 3169 3167 3165 3162 3160 3158 3155 3152 3149 3146 3144 3142 3139 3136 3133 3131 3127 3122 3118 3116 3113 3110 3106 3101 3097 3093 3089 3086 3082 3078 3073 3069 3065 3060 3056 3050 3043 3039 3034 3029 3024 3020 3014 3007 3000 2995 2989 2984 2978 2972 2966 2960
3213 3212 3211 3210 3210 3209 3208 3207 3205 3204 3202 3201 3199 3197 3195 3194 3192 3191 3189 3188 3187 3185 3184 3183 3182 3181 3180 3179 3178 3176 3175 3174 3173 3171 3169 3167 3165 3163 3161 3158 3156 3153 3150 3147 3145 3142 3139 3136 3133 3131 3128 3125 3120 3116 3113 3111 3107 3103 3099 3095 3091 3088 3084 3081 3077 3072 3067 3062 3058 3053 3047 3041 3036 3031 3026 3021 3016 3010 3002 2996 2990 2985 2980 2974 2968 2961 2956
3212 3212 3211 3210 3209 3208 3207 3206 3204 3203 3201 3199 3198 3196 3194 3193 3191 3190 3188 3187 3186 3184 3183 3182 3181 3180 3179 3178 3177 3175 3174 3173 3171 3170 3168 3166 3164 3162 3159 3157 3154 3151 3148 3145 3142 3139 3137 3134 3130 3128 3125 3122 3118 3114 3111 3108 3104 3100 3096 3093 3089 3086 3082 3078 3075 3070 3065 3060 3054 3049 3044 3039 3032 3025 3019 3015 3011 3005 2998 2991 2986 2981 2975 2969 2963 2957 2951
3212 3211 3210 3209 3208 3207 3206 3204 3203 3202 3200 3198 3196 3195 3193 3191 3190 3188 3187 3186 3184 3183 3181 3180 3180 3179 3178 3177 3176 3174 3173 3172 3170 3169 3167 3164 3161 3159 3157 3154 3152 3149 3146 3143 3140 3136 3134 3131 3128 3125 3122 3119 3116 3112 3108 3104 3101 3097 3093 3090 3086 3083 3079 3074 3071 3067 3063 3057 3049 3040 3034 3031 3027 3020 3014 3010 3006 3000 2993 2987 2981 2975 2969 2963 2957 2951 2947
3211 3210 3210 3209 3208 3206 3205 3203 3202 3200 3199 3197 3195 3193 3192 3190 3189 3187 3186 3184 3183 3182 3180 3179 3178 3177 3176 3176 3175 3173 3172 3170 3169 3167 3166 3163 3159 3156 3153 3151 3149 3146 3144 3141 3137 3133 3130 3127 3125 3122 3118 3116 3113 3109 3105 3101 3098 3094 3090 3087 3083 3080 3076 3072 3068 3063 3058 3053 3046 3037 3028 3023 3020 3017 3012 3007 3002 2996 2989 2982 2976 2969 2963 2956 2950 2944 2939
3211 3210 3209 3208 3207 3205 3204 3202 3201 3199 3198 3196 3194 3192 3191 3189 3187 3186 3184 3183 3181 3180 3179 3178 3177 3176 3175 3175 3174 3172 3170 3169 3166 3164 3162 3160 3157 3153 3150 3147 3145 3143 3140 3137 3134 3130 3127 3124 3121 3118 3115 3112 3109 3106 3103 3099 3096 3092 3088 3085 3081 3077 3073 3068 3064 3058 3052 3047 3042 3036 3029 3022 3016 3012 3007 3002 2996 2990 2983 2977 2971 2964 2957 2950 2944 2938 2932
3210 3209 3208 3207 3205 3204 3203 3201 3200 3198 3196 3195 3193 3191 3189 3188 3186 3184 3183 3181 3180 3179 3178 3177 3176 3175 3174 3173 3172 3171 3169 3167 3165 3162 3159 3156 3154 3151 3147 3144 3142 3139 3137 3134 3130 3127 3125 3122 3119 3116 3113 3110 3106 3103 3100 3097 3093 3090 3086 3082 3077 3072 3067 3061 3056 3051 3046 3041 3036 3030 3025 3018 3012 3006 3001 2995 2989 2983 2976 2970 2965 2959 2952 2945 2939 2933 2928
3209 3208 3207 3205 3204 3203 3202 3201 3199 3197 3195 3193 3192 3190 3188 3186 3184 3183 3181 3180 3179 3179 3178 3177 3175 3174 3173 3171 3169 3168 3166 3164 3163 3161 3158 3154 3151 3149 3145 3142 3139 3137 3134 3131 3128 3126 3123 3121 3117 3114 3111 3108 3105 3101 3098 3094 3091 3087 3083 3079 3074 3070 3064 3058 3052 3046 3041 3037 3032 3026 3019 3012 3006 3000 2995 2989 2983 2977 2970 2963 2958 2953 2946 2939 2933 2928 2922
3207 3207 3205 3204 3203 3202 3201 3199 3198 3196 3194 3192 3190 3188 3186 3185 3183 3181 3180 3179 3179 3178 3177 3176 3174 3173 3172 3170 3168 3165 3163 3161 3159 3158 3155 3151 3147 3145 3143 3140 3136 3134 3131 3129 3127 3124 3121 3119 3116 3112 3109 3106 3103 3099 3096 3093 3090 3086 3082 3077 3073 3068 3062 3056 3050 3043 3036 3030 3026 3020 3013 3006 2999 2993 2988 2982 2976 2971 2965 2958 2952 2946 2940 2933 2927 2921 2916
3206 3205 3204 3203 3202 3201 3199 3198 3196 3194 3192 3190 3188 3187 3185 3183 3182 3181 3179 3178 3178 3177 3176 3175 3174 3172 3171 3170 3168 3164 3162 3159 3157 3155 3153 3149 3145 3143 3141 3138 3134 3131 3129 3127 3125 3123 3120 3117 3114 3111 3107 3104 3101 3098 3095 3093 3089 3086 3082 3077 3071 3066 3059 3053 3047 3039 3031 3023 3017 3012 3007 2999 2993 2987 2981 2975 2968 2963 2959 2953 2947 2941 2935 2927 2921 2915 2909
3205 3204 3203 3202 3200 3199 3197 3196 3194 3192 3190 3189 3187 3185 3184 3182 3181 3180 3179 3178 3177 3176 3175 3173 3172 3170 3169 3168 3167 3165 3161 3158 3155 3153 3151 3148 3144 3141 3139 3137 3134 3130 3127 3125 3123 3120 3117 3114 3112 3109 3106 3102 3098 3095 3093 3091 3088 3085 3081 3076 3070 3063 3056 3049 3044 3038 3030 3022 3016 3010 3005 2998 2990 2984 2978 2970 2962 2956 2952 2946 2940 2934 2928 2921 2914 2908 2901
3203 3202 3201 3200 3199 3197 3196 3194 3192 3190 3188 3187 3185 3184 3183 3181 3180 3179 3178 3177 3175 3174 3173 3172 3170 3169 3167 3165 3164 3163 3160 3157 3154 3151 3149 3147 3144 3141 3138 3136 3132 3128 3125 3123 3121 3119 3116 3112 3110 3107 3104 3099 3096 3094 3091 3089 3086 3083 3079 3072 3065 3057 3050 3044 3039 3034 3028 3021 3015 3008 3003 2997 2990 2982 2976 2968 2959 2951 2944 2939 2932 2926 2920 2913 2907 2901 2895
3202 3201 3200 3199 3197 3196 3194 3192 3190 3188 3187 3186 3184 3183 3182 3180 3179 3178 3176 3175 3174 3173 3172 3170 3169 3167 3166 3163 3161 3159 3158 3156 3152 3149 3146 3144 3142 3139 3136 3134 3131 3126 3123 3121 3119 3117 3114 3111 3108 3106 3102 3098 3095 3093 3090 3086 3083 3079 3073 3065 3057 3051 3045 3039 3034 3029 3023 3015 3008 3002 2996 2991 2985 2978 2972 2965 2957 2948 2940 2932 2925 2918 2912 2906 2900 2895 2890
3201 3199 3198 3197 3196 3194 3192 3191 3189 3187 3186 3184 3183 3182 3181 3179 3178 3177 3176 3175 3174 3172 3170 3169 3167 3165 3163 3161 3159 3158 3156 3154 3151 3148 3145 3142 3140 3136 3134 3132 3129 3126 3123 3120 3118 3116 3113 3110 3107 3104 3100 3096 3094 3091 3087 3083 3078 3071 3064 3058 3052 3046 3040 3034 3028 3022 3017 3010 3003 2996 2990 2984 2978 2972 2966 2960 2952 2944 2936 2928 2920 2912 2905 2900 2895 2891 2885
3199 3198 3197 3195 3194 3192 3191 3189 3187 3186 3185 3183 3182 3181 3180 3179 3177 3176 3175 3174 3173 3171 3169 3168 3167 3165 3162 3160 3158 3157 3155 3152 3150 3146 3143 3140 3138 3135 3132 3130 3128 3125 3122 3119 3116 3114 3112 3109 3105 3101 3098 3095 3092 3088 3084 3078 3072 3065 3058 3053 3048 3042 3036 3030 3023 3017 3011 3005 2998 2991 2985 2978 2971 2965 2960 2953 2945 2937 2930 2923 2916 2908 2901 2894 2889 2885 2881
3197 3196 3195 3193 3192 3190 3189 3187 3186 3185 3184 3183 3182 3180 3179 3178 3177 3175 3174 3173 3171 3169 3168 3166 3165 3163 3161 3159 3156 3154 3152 3150 3148 3145 3142 3139 3136 3134 3131 3129 3126 3123 3120 3117 3115 3112 3110 3108 3104 3100 3096 3092 3088 3084 3078 3072 3065 3059 3052 3047 3043 3037 3031 3025 3018 3011 3005 2999 2993 2986 2979 2972 2965 2958 2951 2945 2939 2932 2924 2917 2910 2903 2896 2890 2884 2880 2876
3195 3194 3193 3191 3190 3189 3187 3186 3185 3184 3183 3182 3181 3179 3178 3176 3175 3174 3172 3171 3169 3168 3166 3165 3163 3161 3159 3156 3154 3152 3150 3148 3146 3143 3140 3137 3134 3132 3129 3127 3123 3120 3117 3114 3112 3110 3108 3106 3102 3097 3092 3087 3082 3078 3072 3067 3061 3054 3047 3041 3036 3031 3025 3019 3012 3006 2999 2992 2986 2979 2973 2965 2958 2950 2943 2938 2933 2927 2920 2912 2905 2898 2891 2885 2879 2875 2871
3193 3192 3191 3189 3188 3187 3186 3185 3184 3183 3182 3181 3179 3178 3176 3175 3174 3172 3171 3169 3168 3166 3165 3163 3161 3159 3157 3155 3152 3150 3148 3146 3144 3142 3139 3135 3132 3130 3127 3124 3121 3118 3115 3112 3111 3108 3105 3101 3097 3092 3087 3082 3078 3073 3068 3062 3056 3050 3044 3037 3031 3026 3020 3014 3007 3001 2995 2988 2981 2974 2967 2960 2952 2945 2938 2931 2926 2921 2915 2908 2902 2895 2888 2882 2876 2871 2866
3192 3191 3189 3188 3186 3185 3184 3183 3183 3182 3181 3179 3178 3176 3175 3174 3172 3171 3169 3167 3166 3164 3163 3161 3159 3157 3155 3153 3151 3148 3146 3144 3142 3140 3137 3134 3131 3128 3125 3122 3120 3117 3114 3110 3108 3105 3101 3097 3092 3088 3083 3078 3073 3068 3063 3057 3051 3045 3040 3034 3028 3021 3015 3009 3002 2996 2989 2983 2976 2969 2962 2955 2947 2940 2932 2925 2920 2915 2910 2904 2898 2893 2886 2880 2874 2868 2863
3190 3189 3188 3186 3185 3183 3182 3182 3181 3180 3179 3178 3176 3175 3173 3172 3170 3168 3167 3165 3164 3162 3160 3159 3157 3155 3153 3151 3148 3146 3143 3141 3139 3138 3135 3132 3129 3126 3124 3121 3118 3116 3113 3110 3106 3102 3098 3093 3088 3083 3079 3075 3070 3064 3058 3051 3045 3040 3035 3030 3023 3016 3010 3004 2997 2991 2985 2979 2972 2965 2958 2950 2943 2936 2928 2921 2915 2910 2905 2900 2894 2888 2883 2876 2869 2863 2858
3188 3187 3186 3184 3183 3182 3180 3179 3179 3178 3177 3176 3174 3173 3171 3169 3168 3166 3165 3163 3162 3160 3158 3156 3154 3152 3150 3148 3145 3143 3141 3139 3137 3135 3134 3131 3128 3125 3122 3119 3116 3114 3111 3107 3103 3098 3094 3089 3085 3080 3076 3071 3066 3060 3053 3047 3042 3036 3031 3026 3020 3012 3005 2999 2993 2987 2981 2975 2968 2961 2954 2947 2939 2932 2924 2917 2910 2905 2900 2895 2888 2882 2877 2872 2866 2859 2853
3186 3185 3184 3182 3181 3180 3178 3177 3177 3176 3175 3174 3172 3171 3169 3167 3165 3164 3163 3161 3159 3157 3155 3153 3151 3150 3148 3146 3143 3141 3139 3137 3135 3133 3132 3130 3127 3124 3121 3118 3115 3111 3108 3103 3099 3095 3090 3086 3081 3077 3072 3067 3061 3055 3049 3043 3038 3032 3027 3022 3016 3009 3002 2995 2989 2983 2977 2971 2964 2957 2950 2944 2936 2929 2921 2914 2908 2901 2895 2890 2884 2878 2872 2868 2863 2856 2849
3184 3182 3181 3180 3179 3177 3176 3175 3175 3174 3173 3172 3170 3168 3166 3165 3163 3162 3161 3159 3157 3154 3152 3151 3149 3147 3146 3144 3141 3139 3137 3135 3133 3131 3130 3128 3126 3123 3119 3115 3111 3108 3104 3100 3095 3091 3087 3083 3079 3073 3068 3062 3057 3051 3045 3040 3035 3029 3024 3017 3011 3004 2997 2991 2985 2979 2972 2966 2960 2953 2946 2940 2933 2926 2920 2913 2906 2897 2889 2883 2879 2874 2869 2864 2858 2852 2845
3181 3180 3179 3178 3176 3175 3174 3173 3173 3172 3171 3169 3167 3165 3164 3162 3161 3160 3158 3156 3154 3152 3150 3149 3147 3146 3144 3142 3140 3138 3136 3133 3130 3129 3128 3126 3123 3120 3117 3112 3108 3104 3100 3096 3092 3087 3083 3080 3077 3071 3065 3058 3052 3046 3041 3036 3031 3026 3019 3013 3006 2999 2993 2987 2981 2975 2968 2962 2956 2950 2942 2936 2930 2924 2916 2909 2900 2891 2883 2877 2872 2869 2864 2859 2853 2847 2841